Location: Arena
(42.5007°N, 9.4650°E)
Time: 12:14:07
(UTC+00:00)

SL-8 Rocket - Pass Details

Date: 09 April 2020
Orbit: 957 x 991 km, 82.9° (Epoch: 05 June)

Event Time Altitude Azimuth Distance (km) Brightness Sun altitude
Rises 19:23:07 0° 357° (N) 3,709 7.5 -15.7°
Reaches altitude 10° 19:25:45 10° 3° (N) 2,759 6.7 -16.1°
Maximum altitude 19:31:53 49° 77° (ENE) 1,255 4.3 -17.1°
Enters shadow 19:35:18 25° 140° (SE) 1,862 4.9 -17.7°
